World > North America > United States > New York
Hourly Weather in Colden, New YorkColden, New York Hourly Weather

Colden, NY Hourly Weather

Hourly Weather Colden, New YorkHourly Weather in Colden, NY
Lat: 42.64N, Lon: 78.69W  ICAO: KDKK
Web Search
Colden Weather Warning NWS WEATHER ALERT FOR THE COLDEN, NY AREA - WINTER WEATHER ADVISORY Issued: 235 PM EST Sat Nov 27 2021 Colden Weather Warning  

Helpful Tip: Abbreviated, 7 Day, 14 Day Forecasts. There is a weather forecast for every taste.

Feedback

Colden Hourly Weather

36 Hour Weather Scroll   °F Click to change Colden hourly weather to Imperial units.Click to change Colden hourly weather to Metric units. °C
Currently, Mostly Cloudy, temperature is 32°F0°C, dew point 19.9°F-7°C, humidity 60%. Wind direction is W at 7 mph11 km/h with visibility of 10 mile(s) mi16 km. Barometric pressure is 29.93 in1014 mb.

Nov 27
5:00 PM

Nov 27
6:00 PM

Nov 27
7:00 PM

Nov 27
8:00 PM

Nov 27
9:00 PM

Nov 27
10:00 PM

Nov 27
11:00 PM

Nov 28
MIDNIGHT

Nov 28
1:00 AM

Nov 28
2:00 AM

Nov 28
3:00 AM

Nov 28
4:00 AM

Nov 28
5:00 AM

Nov 28
6:00 AM

Nov 28
7:00 AM

Nov 28
8:00 AM

Nov 28
9:00 AM

Nov 28
10:00 AM

Nov 28
11:00 AM

Nov 28
NOON

Nov 28
1:00 PM

Nov 28
2:00 PM

Nov 28
3:00 PM

Nov 28
4:00 PM

Nov 28
5:00 PM

Nov 28
6:00 PM

Nov 28
7:00 PM

Nov 28
8:00 PM

Nov 28
9:00 PM

Nov 28
10:00 PM

Nov 28
11:00 PM

Nov 29
MIDNIGHT

Nov 29
1:00 AM

Nov 29
2:00 AM

Nov 29
3:00 AM

Nov 29
4:00 AM
Cloudy Cloudy Cloudy Cloudy Cloudy Cloudy Cloudy Cloudy Cloudy Cloudy Cloudy Cloudy Cloudy Cloudy Cloudy Cloudy Cloudy Cloudy Cloudy Cloudy Cloudy Cloudy Cloudy Cloudy Cloudy Cloudy Cloudy Cloudy Cloudy Cloudy Cloudy Cloudy Cloudy Cloudy Cloudy Cloudy
Cloudy Cloudy Cloudy Cloudy Cloudy Cloudy Cloudy Cloudy Cloudy Cloudy Cloudy Cloudy Cloudy Cloudy Cloudy Cloudy Cloudy Cloudy Cloudy Cloudy Cloudy Cloudy Cloudy Cloudy Cloudy Cloudy Cloudy Cloudy Cloudy Cloudy Cloudy Cloudy Cloudy Cloudy Cloudy Cloudy
32°F0°C 31°F-1°C 30°F-1°C 31°F-1°C 31°F-1°C 32°F0°C 32°F0°C 32°F0°C 32°F0°C 32°F0°C 31°F-1°C 31°F-1°C 31°F-1°C 32°F0°C 32°F0°C 33°F1°C 35°F2°C 36°F2°C 36°F2°C 36°F2°C 36°F2°C 36°F2°C 35°F2°C 35°F2°C 35°F2°C 34°F1°C 34°F1°C 34°F1°C 34°F1°C 34°F1°C 33°F1°C 33°F1°C 32°F0°C 31°F-1°C 31°F-1°C 30°F-1°C
- - - Snow Snow Snow Snow Snow Snow Snow Snow Snow Snow Snow Snow Snow Snow Snow Snow Snow Snow Snow Snow Snow Snow Snow Snow Snow Snow Snow Snow Snow Snow Snow Snow Snow
14% 14% 14% 80% 80% 80% 80% 80% 80% 66% 66% 66% 66% 66% 66% 48% 48% 48% 48% 48% 48% 74% 74% 74% 74% 74% 74% 60% 60% 60% 60% 60% 60% 36% 36% 36%
22°F-6°C 23°F-5°C 23°F-5°C 24°F-4°C 24°F-4°C 25°F-4°C 25°F-4°C 26°F-3°C 26°F-3°C 26°F-3°C 26°F-3°C 26°F-3°C 26°F-3°C 27°F-3°C 27°F-3°C 28°F-2°C 28°F-2°C 29°F-2°C 29°F-2°C 30°F-1°C 30°F-1°C 30°F-1°C 29°F-2°C 29°F-2°C 29°F-2°C 28°F-2°C 28°F-2°C 28°F-2°C 28°F-2°C 28°F-2°C 28°F-2°C 27°F-3°C 27°F-3°C 27°F-3°C 26°F-3°C 26°F-3°C
66% 72% 75% 75% 75% 75% 75% 78% 78% 78% 81% 81% 81% 82% 82% 82% 75% 75% 75% 79% 79% 79% 78% 78% 78% 78% 78% 78% 78% 78% 82% 78% 82% 85% 81% 85%
SSW SW SW SW SSE SSE S S S S S S S S S S SSE SW SW SW SSW SSW SSW SSW SSW SSW SSW W W W WNW NW NW NW NW NW
8 mph 5 mph 5 mph 5 mph 5 mph 5 mph 5 mph 4 mph 4 mph 4 mph 5 mph 5 mph 5 mph 4 mph 4 mph 4 mph 6 mph 6 mph 6 mph 9 mph 9 mph 9 mph 12 mph 12 mph 12 mph 14 mph 14 mph 14 mph 10 mph 10 mph 10 mph 6 mph 6 mph 6 mph 6 mph 6 mph
10 mi16 km 6 mi10 km 6 mi10 km 5 mi8 km 3 mi5 km .75 mi1 km .75 mi1 km .75 mi1 km .75 mi1 km .75 mi1 km .75 mi1 km .75 mi1 km .75 mi1 km .75 mi1 km .75 mi1 km .75 mi1 km 3 mi5 km 3 mi5 km 3 mi5 km 3 mi5 km 3 mi5 km 3 mi5 km 3 mi5 km 3 mi5 km 3 mi5 km 5 mi8 km 5 mi8 km 5 mi8 km 3 mi5 km 3 mi5 km 3 mi5 km 5 mi8 km 5 mi8 km 5 mi8 km 5 mi8 km 5 mi8 km
Hour (EST)
Weather
Clouds
Temperature
Precip. Type
POP
Dewpoint
Humidity
Wind Direction
Wind Speed
Visibility
POP = Probability of Precipitation. ** Indicates missing data/values from model statistics.

24 Hour Forecast

Tonight - A chance of snow showers early, then snow from late evening on. Accumulation 1 to 2 inches. Lows ranging from the mid 20s inland to the upper 20s along the lake erie shore. Light winds. Chance of snow 90%.
Sunday - Snow. Additional accumulation around 2 inches. Highs ranging from the lower 30s on the hilltops to the mid 30s across the lower elevations. Light winds, becoming southwest 5 to 10 mph. Chance of snow 90%.

48 Hour Forecast API Feed


Sat, Nov 27
5:00 pm

Sat, Nov 27
6:00 pm

Sat, Nov 27
7:00 pm

Sat, Nov 27
8:00 pm

Sat, Nov 27
9:00 pm

Sat, Nov 27
10:00 pm

Sat, Nov 27
11:00 pm

Sun, Nov 28
Midnight

Sun, Nov 28
1:00 am

Sun, Nov 28
2:00 am

Sun, Nov 28
3:00 am

Sun, Nov 28
4:00 am

Sun, Nov 28
5:00 am

Sun, Nov 28
6:00 am

Sun, Nov 28
7:00 am

Sun, Nov 28
8:00 am

Sun, Nov 28
9:00 am

Sun, Nov 28
10:00 am

Sun, Nov 28
11:00 am

Sun, Nov 28
Noon

Sun, Nov 28
1:00 pm

Sun, Nov 28
2:00 pm

Sun, Nov 28
3:00 pm

Sun, Nov 28
4:00 pm

Sun, Nov 28
5:00 pm

Sun, Nov 28
6:00 pm

Sun, Nov 28
7:00 pm

Sun, Nov 28
8:00 pm

Sun, Nov 28
9:00 pm

Sun, Nov 28
10:00 pm

Sun, Nov 28
11:00 pm

Mon, Nov 29
Midnight

Mon, Nov 29
1:00 am

Mon, Nov 29
2:00 am

Mon, Nov 29
3:00 am

Mon, Nov 29
4:00 am

Mon, Nov 29
5:00 am

Mon, Nov 29
6:00 am

Mon, Nov 29
7:00 am

Mon, Nov 29
8:00 am

Mon, Nov 29
9:00 am

Mon, Nov 29
10:00 am

Mon, Nov 29
11:00 am

Mon, Nov 29
Noon

Mon, Nov 29
1:00 pm

Mon, Nov 29
2:00 pm

Mon, Nov 29
3:00 pm

Mon, Nov 29
4:00 pm
OvercastOvercastOvercastOvercastModerate SnowModerate SnowHeavy SnowHeavy SnowModerate SnowHeavy SnowModerate SnowModerate SnowHeavy SnowModerate SnowHeavy SnowHeavy SnowModerate SnowMistHeavy SnowLight SnowModerate SnowHeavy SnowHeavy SnowHeavy SnowHeavy SnowModerate Or Heavy Snow ShowersModerate Or Heavy Snow ShowersHeavy SnowModerate Or Heavy Snow ShowersMistHeavy SnowFreezing FogModerate Or Heavy Snow ShowersFreezing FogModerate SnowFreezing FogHeavy SnowLight Snow ShowersModerate Or Heavy Snow ShowersLight Snow ShowersLight SnowCloudyLight SnowOvercastOvercastOvercastLight SnowOvercast
Overcast Overcast Overcast Overcast Moderate snow Moderate snow Heavy snow Heavy snow Moderate snow Heavy snow Moderate snow Moderate snow Heavy snow Moderate snow Heavy snow Heavy snow Moderate snow Mist Heavy snow Light snow Moderate snow Heavy snow Heavy snow Heavy snow Heavy snow Moderate snow showers Moderate snow showers Heavy snow Moderate snow showers Mist Heavy snow Freezing fog Moderate snow showers Freezing fog Moderate snow Freezing fog Heavy snow Light snow showers Moderate snow showers Light snow showers Light snow Cloudy Light snow Overcast Overcast Overcast Light snow Overcast
30°F
-1°C
27°F
-3°C
28°F
-3°C
27°F
-3°C
27°F
-3°C
28°F
-3°C
27°F
-3°C
27°F
-3°C
27°F
-3°C
28°F
-3°C
28°F
-2°C
27°F
-3°C
28°F
-3°C
28°F
-2°C
28°F
-2°C
29°F
-2°C
29°F
-2°C
31°F
-1°C
32°F
0°C
33°F
1°C
35°F
1°C
35°F
1°C
33°F
1°C
33°F
1°C
33°F
0°C
32°F
-0°C
31°F
-1°C
29°F
-2°C
27°F
-3°C
27°F
-3°C
27°F
-3°C
26°F
-3°C
27°F
-3°C
27°F
-3°C
27°F
-3°C
28°F
-2°C
26°F
-3°C
26°F
-3°C
26°F
-3°C
25°F
-4°C
23°F
-5°C
25°F
-4°C
27°F
-3°C
29°F
-2°C
30°F
-1°C
30°F
-1°C
31°F
-1°C
31°F
-1°C
23°F
-5°C
22°F
-6°C
23°F
-5°C
23°F
-5°C
25°F
-4°C
26°F
-3°C
27°F
-3°C
26°F
-3°C
26°F
-3°C
27°F
-3°C
27°F
-3°C
26°F
-3°C
27°F
-3°C
27°F
-3°C
28°F
-3°C
28°F
-2°C
28°F
-2°C
29°F
-2°C
31°F
-1°C
32°F
0°C
34°F
1°C
34°F
1°C
33°F
1°C
33°F
0°C
32°F
-0°C
30°F
-1°C
29°F
-2°C
27°F
-3°C
25°F
-4°C
26°F
-3°C
26°F
-3°C
26°F
-3°C
26°F
-3°C
27°F
-3°C
27°F
-3°C
27°F
-3°C
26°F
-4°C
25°F
-4°C
25°F
-4°C
23°F
-5°C
22°F
-5°C
23°F
-5°C
24°F
-5°C
24°F
-5°C
25°F
-4°C
26°F
-3°C
27°F
-3°C
28°F
-2°C
29.94 in
1014 mb
29.97 in
1015 mb
29.97 in
1015 mb
29.94 in
1014 mb
29.94 in
1014 mb
29.94 in
1014 mb
29.91 in
1013 mb
29.91 in
1013 mb
29.88 in
1012 mb
29.88 in
1012 mb
29.85 in
1011 mb
29.83 in
1010 mb
29.83 in
1010 mb
29.83 in
1010 mb
29.83 in
1010 mb
29.83 in
1010 mb
29.83 in
1010 mb
29.8 in
1009 mb
29.8 in
1009 mb
29.77 in
1008 mb
29.74 in
1007 mb
29.74 in
1007 mb
29.74 in
1007 mb
29.74 in
1007 mb
29.77 in
1008 mb
29.77 in
1008 mb
29.77 in
1008 mb
29.8 in
1009 mb
29.8 in
1009 mb
29.83 in
1010 mb
29.83 in
1010 mb
29.83 in
1010 mb
29.85 in
1011 mb
29.85 in
1011 mb
29.88 in
1012 mb
29.91 in
1013 mb
29.94 in
1014 mb
29.94 in
1014 mb
29.97 in
1015 mb
30 in
1016 mb
30.03 in
1017 mb
30.03 in
1017 mb
30.06 in
1018 mb
30.06 in
1018 mb
30.03 in
1017 mb
30.03 in
1017 mb
30 in
1016 mb
30 in
1016 mb
74%81%82%85%91%94%97%97%97%97%96%97%97%97%98%98%97%94%93%94%97%100%99%98%97%94%93%92%94%97%97%98%98%98%98%98%97%96%95%95%96%93%86%82%82%84%86%90%
WWSWSWSWSWSWSSWSSWSSSSESESSESSESSESSESSSWSSWSSWSWWSWWWWWWWWSWWWNWNWNNNNNWNWNWNWNWNWNWNWWNWWNWWNWWW
9 mph
14 km/h
6 mph
9 km/h
6 mph
9 km/h
6 mph
10 km/h
5 mph
8 km/h
4 mph
6 km/h
4 mph
6 km/h
4 mph
6 km/h
5 mph
8 km/h
5 mph
8 km/h
4 mph
6 km/h
4 mph
6 km/h
4 mph
6 km/h
3 mph
5 km/h
3 mph
5 km/h
3 mph
5 km/h
3 mph
5 km/h
4 mph
7 km/h
5 mph
8 km/h
5 mph
8 km/h
7 mph
12 km/h
9 mph
15 km/h
12 mph
19 km/h
12 mph
19 km/h
13 mph
21 km/h
12 mph
19 km/h
11 mph
17 km/h
8 mph
13 km/h
5 mph
8 km/h
4 mph
7 km/h
5 mph
8 km/h
4 mph
6 km/h
5 mph
8 km/h
5 mph
9 km/h
6 mph
9 km/h
5 mph
9 km/h
6 mph
9 km/h
8 mph
13 km/h
9 mph
14 km/h
8 mph
13 km/h
6 mph
9 km/h
6 mph
10 km/h
8 mph
13 km/h
8 mph
13 km/h
8 mph
13 km/h
9 mph
14 km/h
9 mph
14 km/h
8 mph
13 km/h
0%0%0%0%0%0%0%0%0%0%0%0%0%0%0%0%0%0%0%0%90%84%0%0%0%0%0%0%0%0%0%0%0%0%0%0%0%0%0%0%0%0%0%0%0%0%0%0%
6 mi
10 km
6 mi
10 km
6 mi
10 km
6 mi
10 km
3 mi
5 km
3 mi
5 km
1 mi
2 km
1 mi
2 km
3 mi
5 km
1 mi
2 km
3 mi
5 km
3 mi
5 km
1 mi
2 km
3 mi
5 km
1 mi
2 km
1 mi
2 km
3 mi
5 km
1 mi
2 km
1 mi
2 km
6 mi
10 km
3 mi
5 km
1 mi
2 km
1 mi
2 km
1 mi
2 km
1 mi
2 km
4 mi
7 km
4 mi
7 km
1 mi
2 km
4 mi
7 km
1 mi
2 km
1 mi
2 km
0 mi
0 km
4 mi
7 km
0 mi
0 km
3 mi
5 km
0 mi
0 km
1 mi
2 km
6 mi
10 km
4 mi
7 km
6 mi
10 km
6 mi
10 km
6 mi
10 km
6 mi
10 km
6 mi
10 km
6 mi
10 km
6 mi
10 km
6 mi
10 km
6 mi
10 km

Day/Time
Weather
Condition
Temperature
Dew Point
Pressure
Humidity
Wind Direction
Wind Speed
Prob Precip %
Visibility
Prob Precip % = Probability of Precipitation.